Time,TemperatureF,DewpointF,PressureIn,WindDirection,WindDirectionDegrees,WindSpeedMPH,WindSpeedGustMPH,Humidity,HourlyPrecipIn,Conditions,Clouds,dailyrainin,SoftwareType,DateUTC
2015-02-01 00:00:00,39.5,39.5,30.10,N/A,-737280,0.0,0.0,100,0.00,,,0.00,Wunderground v.1.13,2015-02-01 08:00:00,
2015-02-01 00:01:00,39.6,39.6,30.10,ENE,59,0.0,0.0,100,0.00,,,0.00,Wunderground v.1.13,2015-02-01 08:01:00,
2015-02-01 00:11:00,39.5,39.5,30.10,ENE,59,0.0,0.0,100,0.00,,,0.00,Wunderground v.1.13,2015-02-01 08:11:00,
2015-02-01 00:21:00,39.6,39.6,30.10,ENE,59,0.0,0.0,100,0.00,,,0.00,Wunderground v.1.13,2015-02-01 08:21:00,
2015-02-01 00:31:00,39.5,39.5,30.10,ENE,59,0.0,0.0,100,0.00,,,0.00,Wunderground v.1.13,2015-02-01 08:31:00,
2015-02-01 00:41:00,39.2,39.2,30.10,ENE,59,0.0,0.0,100,0.00,,,0.00,Wunderground v.1.13,2015-02-01 08:41:00,
2015-02-01 00:51:00,39.1,39.1,30.09,ENE,59,0.0,0.0,100,0.00,,,0.00,Wunderground v.1.13,2015-02-01 08:51:00,
2015-02-01 01:01:00,39.1,39.1,30.08,N/A,-737280,0.0,0.0,100,0.00,,,0.00,Wunderground v.1.13,2015-02-01 09:01:00,
2015-02-01 01:11:00,39.1,39.1,30.08,ENE,59,0.0,0.0,100,0.00,,,0.00,Wunderground v.1.13,2015-02-01 09:11:00,
2015-02-01 01:21:00,39.2,39.2,30.07,ENE,59,0.0,0.0,100,0.00,,,0.00,Wunderground v.1.13,2015-02-01 09:21:00,
2015-02-01 01:31:00,39.2,39.2,30.06,ENE,59,0.0,0.0,100,0.00,,,0.00,Wunderground v.1.13,2015-02-01 09:31:00,
2015-02-01 01:41:00,39.3,39.3,30.06,East,88,0.0,0.0,100,0.00,,,0.00,Wunderground v.1.13,2015-02-01 09:41:00,
2015-02-01 01:51:00,39.6,39.6,30.06,SE,142,0.0,0.0,100,0.00,,,0.00,Wunderground v.1.13,2015-02-01 09:51:00,
2015-02-01 02:01:00,41.1,41.1,30.06,SE,135,1.0,7.0,100,0.00,,,0.00,Wunderground v.1.13,2015-02-01 10:01:00,
2015-02-01 02:11:00,43.6,39.4,30.06,ESE,117,1.0,1.0,85,0.00,,,0.00,Wunderground v.1.13,2015-02-01 10:11:00,
2015-02-01 02:21:00,45.5,34.4,30.06,East,99,1.0,1.0,65,0.00,,,0.00,Wunderground v.1.13,2015-02-01 10:21:00,
2015-02-01 02:31:00,47.0,32.5,30.06,SSE,158,2.0,9.0,57,0.00,,,0.00,Wunderground v.1.13,2015-02-01 10:31:00,
2015-02-01 02:41:00,48.0,30.7,30.06,South,191,1.0,3.0,51,0.00,,,0.00,Wunderground v.1.13,2015-02-01 10:41:00,
2015-02-01 02:51:00,48.3,30.5,30.05,East,90,1.0,5.0,50,0.00,,,0.00,Wunderground v.1.13,2015-02-01 10:51:00,
2015-02-01 03:01:00,46.8,32.8,30.06,South,190,0.0,1.0,58,0.00,,,0.00,Wunderground v.1.13,2015-02-01 11:01:00,
2015-02-01 03:11:00,45.8,34.3,30.06,West,270,0.0,3.0,64,0.00,,,0.00,Wunderground v.1.13,2015-02-01 11:11:00,
2015-02-01 03:21:00,44.3,36.2,30.07,West,274,1.0,1.0,73,0.00,,,0.00,Wunderground v.1.13,2015-02-01 11:21:00,
2015-02-01 03:31:00,43.5,37.4,30.07,SSW,213,0.0,0.0,79,0.00,,,0.00,Wunderground v.1.13,2015-02-01 11:31:00,
2015-02-01 03:41:00,42.9,38.1,30.07,WNW,288,0.0,0.0,83,0.00,,,0.00,Wunderground v.1.13,2015-02-01 11:41:00,
2015-02-01 03:51:00,42.6,39.0,30.07,NW,316,0.0,0.0,87,0.00,,,0.00,Wunderground v.1.13,2015-02-01 11:51:00,
2015-02-01 04:01:00,42.2,39.2,30.08,West,276,0.0,0.0,89,0.00,,,0.00,Wunderground v.1.13,2015-02-01 12:01:00,
2015-02-01 04:11:00,41.9,39.2,30.08,West,270,0.0,2.0,90,0.00,,,0.00,Wunderground v.1.13,2015-02-01 12:11:00,
2015-02-01 04:21:00,41.6,39.2,30.07,West,276,0.0,0.0,91,0.00,,,0.00,Wunderground v.1.13,2015-02-01 12:21:00,
2015-02-01 04:31:00,41.5,39.3,30.07,West,276,0.0,0.0,92,0.00,,,0.00,Wunderground v.1.13,2015-02-01 12:31:00,
2015-02-01 04:41:00,41.3,39.2,30.07,West,276,0.0,0.0,92,0.00,,,0.00,Wunderground v.1.13,2015-02-01 12:41:00,
2015-02-01 04:51:00,41.3,39.2,30.07,West,270,0.0,1.0,92,0.00,,,0.00,Wunderground v.1.13,2015-02-01 12:51:00,
2015-02-01 05:01:00,41.1,39.2,30.07,West,276,0.0,0.0,93,0.00,,,0.00,Wunderground v.1.13,2015-02-01 13:01:00,
2015-02-01 05:11:00,41.1,39.2,30.07,West,276,0.0,0.0,93,0.00,,,0.00,Wunderground v.1.13,2015-02-01 13:11:00,
2015-02-01 05:21:00,40.9,39.0,30.06,West,276,0.0,0.0,93,0.00,,,0.00,Wunderground v.1.13,2015-02-01 13:21:00,
2015-02-01 05:31:00,40.9,39.3,30.06,West,276,0.0,0.0,94,0.00,,,0.00,Wunderground v.1.13,2015-02-01 13:31:00,
2015-02-01 05:41:00,41.1,39.2,30.06,West,276,0.0,0.0,93,0.00,,,0.00,Wunderground v.1.13,2015-02-01 13:41:00,
2015-02-01 05:51:00,41.3,38.9,30.05,West,276,0.0,0.0,91,0.00,,,0.00,Wunderground v.1.13,2015-02-01 13:51:00,
2015-02-01 06:01:00,41.2,38.8,30.05,West,276,0.0,0.0,91,0.00,,,0.00,Wunderground v.1.13,2015-02-01 14:01:00,
2015-02-01 06:11:00,41.1,39.0,30.05,West,276,0.0,0.0,92,0.00,,,0.00,Wunderground v.1.13,2015-02-01 14:11:00,
2015-02-01 06:21:00,41.1,38.1,30.03,SE,146,0.0,0.0,89,0.00,,,0.00,Wunderground v.1.13,2015-02-01 14:21:00,
2015-02-01 06:31:00,42.8,35.1,30.02,SE,135,1.0,6.0,74,0.00,,,0.00,Wunderground v.1.13,2015-02-01 14:31:00,
2015-02-01 06:41:00,43.8,35.4,30.02,East,87,0.0,0.0,72,0.00,,,0.00,Wunderground v.1.13,2015-02-01 14:41:00,
2015-02-01 06:51:00,43.5,35.4,30.02,East,89,0.0,0.0,73,0.00,,,0.00,Wunderground v.1.13,2015-02-01 14:51:00,
2015-02-01 07:01:00,43.3,33.1,30.01,SSW,202,0.0,0.0,67,0.00,,,0.00,Wunderground v.1.13,2015-02-01 15:01:00,
2015-02-01 07:11:00,46.2,31.4,30.01,SE,126,2.0,2.0,56,0.00,,,0.00,Wunderground v.1.13,2015-02-01 15:11:00,
2015-02-01 07:21:00,47.1,31.3,30.01,SSE,158,1.0,7.0,54,0.00,,,0.00,Wunderground v.1.13,2015-02-01 15:21:00,
2015-02-01 07:31:00,47.6,31.8,30.00,SE,139,1.0,3.0,54,0.00,,,0.00,Wunderground v.1.13,2015-02-01 15:31:00,